Weather History for Fort Myers, FL

Change the Weather History Date:

Sunday, November 13, 2011

  Actual Average Record
Temperature  
Mean Temperature 71 °F 72 °F  
Max Temperature 83 °F 82 °F 90 °F (1972)
Min Temperature 59 °F 62 °F 42 °F (1968)
Degree Days  
Heating Degree Days 0 0  
Month to date heating degree days 2 0  
Since 1 July heating degree days 2 2  
Cooling Degree Days 6 7  
Month to date cooling degree days 73 110  
Year to date cooling degree days 3934 3758  
Growing Degree Days 20 (Base 50)    
Moisture  
Dew Point 59 °F    
Average Humidity 68    
Maximum Humidity 87    
Minimum Humidity 47    
Precipitation  
Precipitation 0.00 in 0.07 in 0.95 in (1925)
Month to date precipitation T 1.07  
Year to date precipitation 65.17 53.33  
Sea Level Pressure  
Sea Level Pressure 30.16 in    
Wind  
Wind Speed 7 mph (East)    
Max Wind Speed 17 mph    
Max Gust Speed 21 mph    
Visibility 10 miles    
Events      
T = Trace of Precipitation, MM = Missing Value Source: NWS Daily Summary

Daily Weather History Graph

Daily Weather History Graph

Search for Another Location

Airport:

Trip Planner

Search our weather history database for the weather conditions in past years. The results will help you decide how hot, cold, wet, or windy it might be!

Date:

Astronomy

Nov. 13, 2011 Rise Set
Actual Time 6:44 AM EST 5:38 PM EST
Civil Twilight 6:20 AM EST 6:02 PM EST
Nautical Twilight 5:52 AM EST 6:30 PM EST
Astronomical Twilight 5:25 AM EST 6:57 PM EST
Moon 7:54 PM EST (11/13) 9:06 AM EST (11/13)
Length of Visible Light 11h 41m
Length of Day
10h 53m
Waning Gibbous, 93% of the Moon is Illuminated
Nov 13
Waning Gibbous
Nov 18
Last Quarter
Nov 25
New
Dec 2
First Quarter
Dec 10
Full

Hourly Weather History & Observations

Time (EST) Temp. Heat Index Dew Point Humidity Pressure Visibility Wind Dir Wind Speed Gust Speed Precip Events Conditions
12:53 AM 61.0 °F - 55.9 °F 83% 30.20 in 10.0 mi ENE 4.6 mph - N/A   Clear
1:53 AM 60.1 °F - 55.0 °F 83% 30.19 in 10.0 mi ENE 4.6 mph - N/A   Clear
2:53 AM 60.1 °F - 55.0 °F 83% 30.18 in 10.0 mi ENE 3.5 mph - N/A   Clear
3:53 AM 59.0 °F - 55.0 °F 87% 30.17 in 10.0 mi ENE 4.6 mph - N/A   Clear
4:53 AM 59.0 °F - 55.0 °F 87% 30.17 in 10.0 mi ENE 4.6 mph - N/A   Clear
5:53 AM 59.0 °F - 55.0 °F 87% 30.19 in 10.0 mi ENE 5.8 mph - N/A   Clear
6:53 AM 60.1 °F - 55.9 °F 86% 30.20 in 10.0 mi ENE 6.9 mph - N/A   Clear
7:53 AM 63.0 °F - 57.0 °F 81% 30.20 in 10.0 mi East 8.1 mph - N/A   Clear
8:53 AM 70.0 °F - 57.9 °F 65% 30.22 in 10.0 mi East 8.1 mph - N/A   Clear
9:53 AM 73.9 °F - 57.9 °F 57% 30.22 in 10.0 mi East 9.2 mph 18.4 mph N/A   Clear
10:53 AM 78.1 °F - 60.1 °F 54% 30.21 in 10.0 mi ESE 15.0 mph 20.7 mph N/A   Clear
11:53 AM 80.1 °F 80.9 °F 60.1 °F 50% 30.19 in 10.0 mi SE 11.5 mph 19.6 mph N/A   Clear
12:53 PM 81.0 °F 81.6 °F 60.1 °F 49% 30.15 in 10.0 mi ESE 10.4 mph - N/A   Clear
1:53 PM 82.0 °F 82.4 °F 60.1 °F 47% 30.12 in 10.0 mi ESE 9.2 mph - N/A   Partly Cloudy
2:53 PM 82.0 °F 82.4 °F 60.1 °F 47% 30.11 in 10.0 mi East 5.8 mph - N/A   Partly Cloudy
3:53 PM 81.0 °F 81.6 °F 60.1 °F 49% 30.11 in 10.0 mi East 8.1 mph - N/A   Scattered Clouds
4:40 PM 80.6 °F 80.8 °F 57.2 °F 45% 30.10 in 10.0 mi ESE 5.8 mph - N/A   Partly Cloudy
4:53 PM 79.0 °F - 59.0 °F 50% 30.10 in 10.0 mi East 6.9 mph - N/A   Clear
5:53 PM 75.9 °F - 61.0 °F 60% 30.11 in 10.0 mi ENE 8.1 mph - N/A   Clear
6:53 PM 73.9 °F - 61.0 °F 64% 30.12 in 10.0 mi East 8.1 mph - N/A   Clear
7:53 PM 72.0 °F - 61.0 °F 68% 30.14 in 10.0 mi East 5.8 mph - N/A   Clear
8:53 PM 70.0 °F - 61.0 °F 73% 30.16 in 10.0 mi ENE 5.8 mph - N/A   Clear
9:53 PM 68.0 °F - 61.0 °F 78% 30.16 in 10.0 mi East 5.8 mph - N/A   Clear
10:53 PM 66.9 °F - 61.0 °F 81% 30.16 in 10.0 mi East 5.8 mph - N/A   Clear
11:53 PM 66.0 °F - 61.0 °F 84% 30.15 in 10.0 mi East 5.8 mph - N/A   Clear